User: anonymous   Login
Location: STAR School
(35.3054°N, 111.2976°W)
Time: 15:19:41
(UTC-07:00)
Language:

STRAND 1 - Orbit

View from above orbital plane
View from above orbital plane
View from above satellite
View from above satellite

Ground track
Ground track

The orbit data is extracted from the following two-line orbital elements,

1 39090U 13009E   19111.14956551  .00000019  00000-0  21769-4 0  9992
2 39090  98.4944 318.0711 0010339 101.3843 258.8504 14.35078882321990
Epoch (UTC): 21 April 2019 03:35:22
Eccentricity: 0.0010339
inclination: 98.4944°
perigee height: 767 km
apogee height: 782 km
right ascension of ascending node: 318.0711°
argument of perigee: 101.3843°
revolutions per day: 14.35078882
mean anomaly at epoch: 258.8504°
orbit number at epoch: 32199

The dashed part of the orbit path shows where the satellite is in the earth's shadow,  

DLR